Regional Weather Roundup
Issued by NWS Charleston, SC

Current Version | Previous Version | Graphics & Text | Print | Product List | Glossary On
Versions: 1 2 3 4 5 6 7 8 9 10 11 12 13 14 15 16 17 18 19 20 21 22 23 24 25 26 27 28 29 30 31 32 33 34 35 36 37 38 39 40 41 42 43 44 45 46 47 48 49 50
000
ASUS42 KCHS 040926
RWRCHS

REGIONAL WEATHER ROUNDUP
NATIONAL WEATHER SERVICE CHARLESTON SC
400 AM EST WED MAR 04 2015

NOTE: "FAIR" INDICATES FEW OR NO CLOUDS BELOW 12,000 FEET WITH NO
SIGNIFICANT WEATHER AND/OR OBSTRUCTIONS TO VISIBILITY.

NOT ALL STATIONS ARE QUALITY CONTROLLED BY THE NATIONAL
WEATHER SERVICE. USE DATA WITH CAUTION...ESPECIALLY
DEWPOINT OBSERVATIONS.

SCZ027-030-031-034>040-042>050-041000-
...SOUTHEAST SOUTH CAROLINA...

CITY           SKY/WX    TMP DP  RH WIND       PRES   REMARKS
N CHARLESTON   FOG       55  55 100 S5        30.09F VSB 1/4
WATERFRONT PRK   N/A     52 N/A N/A SW3         N/A
MOUNT PLEASANT FOG       55  55 100 SW3       30.10S VSB<1/4
PINOPOLIS      NOT AVBL
MONCKS CORNER  FOG       52  50  93 CALM      30.08S VSB 1/4
SUMMERVILLE    NOT AVBL
BEAUFORT MCAS  CLOUDY    65  63  93 S9        30.08F
BEAUFORT ARPT  CLOUDY    64  64 100 SW6       30.09S
HILTON HEAD IS PTCLDY    64  64 100 S8        30.10S
WALTERBORO     FOG       55  55 100 CALM      30.09S VSB 1/4
ALLENDALE      FOG       55  55 100 CALM      30.07S VSB<1/4

...SOUTHERN MIDLANDS AND PEE DEE...

CITY           SKY/WX    TMP DP  RH WIND       PRES   REMARKS
GEORGETOWN     NOT AVBL
KINGSTREE      NOT AVBL
ORANGEBURG     FOG       49  47  93 CALM      30.07S VSB 1/4
BARNWELL       FOG       54  54 100 CALM      30.07F VSB<1/4
AIKEN          FOG       50  50 100 CALM      30.09F VSB<1/4
MANNING        FOG      N/A N/A N/A CALM      30.07F VSB 1/4
COLUMBIA       DRZL/FOG  47  46  97 CALM      30.06F VSB 1/4
SUMTER         FOG       45  45 100 S2        30.05F VSB 1/4
FLORENCE       FOG       44  43  96 CALM      30.06F VSB 1/2
MYRTLE BEACH   CLOUDY    48  46  93 CALM      30.10S VSB 1/4
N MYRTLE BEACH FOG       48  47  96 SW5       30.08R VSB 1/4

$$

GAZ063-065-086>088-099>101-113>116-118-119-134>141-150-041000-
...SOUTHEAST GEORGIA...

CITY           SKY/WX    TMP DP  RH WIND       PRES   REMARKS
SAVANNAH ARPT  CLOUDY    65  62  90 S7        30.08F
HUNTER AAF     MOCLDY    65  65 100 S6        30.07S
FORT STEWART   PTCLDY    63  61  94 CALM      30.07R
STATESBORO     MOCLDY    63  63 100 S3        30.07S
SYLVANIA       FOG       62  62 100 S3        30.08S VSB 1/2
CLAXTON        FOG       59  59 100 CALM      30.08S VSB 1/4

...CSRA...CENTRAL AND FAR SOUTHEAST GEORGIA...

CITY           SKY/WX    TMP DP  RH WIND       PRES   REMARKS
THOMSON        CLOUDY    52  52 100 CALM      30.11S VSB 1/4
AUGUSTA-BUSH   FOG       51  51 100 CALM      30.07F VSB 1/4
AUGUSTA-DANIEL FOG       53  52  96 CALM      30.06F VSB 1/4
SWAINSBORO     NOT AVBL
VIDALIA        CLOUDY    64  64 100 S3        30.08S
EASTMAN        PTSUNNY   61  61 100 CALM      30.10S FOG
HAZLEHURST     PTSUNNY   64  64 100 S3        30.07S
ALMA           PTCLDY    60  59  96 CALM      30.08S FOG
WAYCROSS       MOCLDY    63  63 100 CALM      30.08S
JESUP          PTSUNNY   68  66  94 CALM      30.09S
BAXLEY         FAIR      63  63 100 CALM      30.08S FOG
BRUNSWICK      CLOUDY    59  59 100 CALM      30.11R VSB 1
SAINT SIMONS   PTCLDY    58  57  97 CALM      30.10R

$$

SCZ027-028-034-036>038-045-046-048>050-GAZ119-141-041000-
...LAKE AND SUPPLEMENTAL COASTAL OBSERVATIONS...

STATION/POSITION TIME  TEMP    WIND        PRES    WAVE   SWELL
                       AIR SEA DIR/SP/G            HT/PER HT/PER/DIR
                 (UTC) (F)     (DEG/KT/KT) (MB)    (FT/S) (FT/S/D)
UPR LAKE MARION  NOT AVBL
WINYAH BAY       0845   49        CALM     1018.0S
LAKE MURRAY      0900   46     160/  3/  3 1017.3F
ACE BASIN NERRS  NOT AVBL
FORT PULASKI     0900   60 50  200/  4/  5 1019.4F
SAPELO ISLAND    0900   60        CALM     1019.0S

$$

ANZ835-935-AMZ111-154-330-350-352-354-370-450-454-472-041000-
...C-MAN AND BUOY OBSERVATIONS...

STATION/POSITION TIME  TEMP    WIND        PRES    WAVE   SWELL
                       AIR SEA DIR/SP/G            HT/PER HT/PER/DIR
                 (UTC) (F)     (DEG/KT/KT) (MB)    (FT/S) (FT/S/D)
BUOY 41004       0850   70 68  200/ 12/ 12 1018.4S   4/ 9   3/ 9
BUOY 41008       0850   55 54  230/  6/  8 1019.0F   3/ 8   3/100/ 8
FOLLY BEACH CMAN 0900   58     230/  5/  7 1019.5F
CAPERS NEARSHORE NOT AVBL
FRIPP NEARSHORE  0800   53     240/  8/ 10 1018.9F


STATION/POSITION TIME  TEMP    WIND        PRES    WAVE   SWELL
                       AIR SEA DIR/SP/G            HT/PER HT/PER/DIR
                 (UTC) (F)     (DEG/KT/KT) (MB)    (FT/S) (FT/S/D)
5E ST. MARYS GA  0821      54                N/A     2/ 9
FRYING PAN BUOY  0850   60 61  310/  2/  4 1019.2F   5/ 7   5/110/ 7
BUOY 41025       NOT AVBL
CAPE LOOKOUT NC  0900   58     220/ 10/ 12 1017.7F
BUOY 41002       0850   70 72  200/ 17/ 21 1021.7F   6/10   3/120/10
BUOY 41010       0820   74 75  160/ 12/ 14 1021.0F
ST AUGUSTINE FL  0900   61     190/  6/  6 1019.9F


$$



USA.gov is the U.S. government's official web portal to all federal, state and local government web resources and services.